• In Latvia
  • List of Countries
  • For 7 days
  • Water Temperature
  • Satellite Maps
  • Weather Map
  • Weather Widgets
  • user-avatar
    Login

    Hourly Weather Tirgul Vertiujeni

    Today, 22 August, Wednesday

    Time Temperature Precipitation Wind Pressure Humidity
    00:00 +22°C° 0 mm 3 mps 749 mmHg 78%
    01:00 +21°C° 0 mm 3 mps 749 mmHg 79%
    02:00 +20°C° 0 mm 3 mps 750 mmHg 80%
    03:00 +20°C° 0 mm 3 mps 750 mmHg 81%
    04:00 +19°C° 0 mm 3 mps 750 mmHg 81%
    05:00 +18°C° 0 mm 2 mps 750 mmHg 82%
    06:00 +20°C° 0 mm 3 mps 750 mmHg 76%
    07:00 +21°C° 0 mm 3 mps 751 mmHg 71%
    08:00 +22°C° 0 mm 3 mps 751 mmHg 66%
    09:00 +24°C° 0 mm 3 mps 751 mmHg 59%
    10:00 +26°C° 0 mm 3 mps 751 mmHg 52%
    11:00 +27°C° 0 mm 3 mps 752 mmHg 46%
    12:00 +28°C° 0 mm 3 mps 752 mmHg 44%
    13:00 +28°C° 0 mm 3 mps 751 mmHg 41%
    14:00 +29°C° 0 mm 4 mps 751 mmHg 39%
    15:00 +29°C° 0 mm 4 mps 751 mmHg 40%
    16:00 +28°C° 0 mm 4 mps 751 mmHg 41%
    17:00 +28°C° 0 mm 4 mps 751 mmHg 42%
    18:00 +26°C° 0 mm 3 mps 751 mmHg 48%
    19:00 +24°C° 0 mm 3 mps 751 mmHg 54%
    20:00 +22°C° 0 mm 3 mps 752 mmHg 60%
    21:00 +21°C° 0 mm 3 mps 752 mmHg 63%
    22:00 +20°C° 0 mm 3 mps 752 mmHg 65%
    23:00 +19°C° 0 mm 3 mps 752 mmHg 68%

    Tomorrow, 23 August, Thursday

    Time Temperature Precipitation Wind Pressure Humidity
    00:00 +19°C° 0 mm 3 mps 752 mmHg 69%
    01:00 +18°C° 0 mm 3 mps 752 mmHg 69%
    02:00 +18°C° 0 mm 3 mps 752 mmHg 69%
    03:00 +18°C° 0 mm 3 mps 752 mmHg 69%
    04:00 +17°C° 0 mm 3 mps 752 mmHg 68%
    05:00 +17°C° 0 mm 3 mps 752 mmHg 68%
    06:00 +18°C° 0 mm 3 mps 752 mmHg 63%
    07:00 +20°C° 0 mm 3 mps 752 mmHg 59%
    08:00 +21°C° 0 mm 4 mps 752 mmHg 54%
    09:00 +23°C° 0 mm 4 mps 752 mmHg 50%
    10:00 +25°C° 0 mm 4 mps 752 mmHg 45%
    11:00 +27°C° 0 mm 4 mps 752 mmHg 41%
    12:00 +28°C° 0 mm 4 mps 751 mmHg 39%
    13:00 +28°C° 0 mm 4 mps 751 mmHg 37%
    14:00 +29°C° 0 mm 4 mps 751 mmHg 35%
    15:00 +29°C° 0 mm 4 mps 750 mmHg 35%
    16:00 +28°C° 0 mm 4 mps 750 mmHg 35%
    17:00 +28°C° 0 mm 4 mps 750 mmHg 36%
    18:00 +26°C° 0 mm 4 mps 750 mmHg 39%
    19:00 +24°C° 0 mm 3 mps 750 mmHg 42%
    20:00 +21°C° 0 mm 3 mps 750 mmHg 45%
    21:00 +21°C° 0 mm 3 mps 750 mmHg 45%
    22:00 +20°C° 0 mm 3 mps 750 mmHg 45%
    23:00 +19°C° 0 mm 3 mps 750 mmHg 44%

    Day after tomorrow, 24 August, Friday

    Time Temperature Precipitation Wind Pressure Humidity
    00:00 +19°C° 0 mm 3 mps 750 mmHg 44%
    01:00 +18°C° 0 mm 3 mps 750 mmHg 44%
    02:00 +17°C° 0 mm 3 mps 749 mmHg 44%
    03:00 +17°C° 0 mm 3 mps 749 mmHg 45%
    04:00 +17°C° 0 mm 2 mps 749 mmHg 45%
    05:00 +16°C° 0 mm 2 mps 749 mmHg 45%
    06:00 +18°C° 0 mm 3 mps 749 mmHg 43%
    07:00 +19°C° 0 mm 3 mps 749 mmHg 41%
    08:00 +21°C° 0 mm 3 mps 749 mmHg 39%
    09:00 +24°C° 0 mm 3 mps 749 mmHg 35%
    10:00 +26°C° 0 mm 4 mps 749 mmHg 31%
    11:00 +28°C° 0 mm 4 mps 748 mmHg 28%
    12:00 +29°C° 0 mm 4 mps 748 mmHg 27%
    13:00 +29°C° 0 mm 3 mps 748 mmHg 26%
    14:00 +30°C° 0 mm 3 mps 747 mmHg 25%
    15:00 +30°C° 0 mm 3 mps 747 mmHg 26%
    16:00 +30°C° 0 mm 3 mps 747 mmHg 27%
    17:00 +30°C° 0 mm 2 mps 746 mmHg 28%
    18:00 +28°C° 0 mm 2 mps 746 mmHg 31%
    19:00 +25°C° 0 mm 2 mps 746 mmHg 35%
    20:00 +22°C° 0 mm 3 mps 746 mmHg 38%
    21:00 +21°C° 0 mm 3 mps 746 mmHg 38%
    22:00 +21°C° 0 mm 3 mps 746 mmHg 38%
    23:00 +20°C° 0 mm 3 mps 746 mmHg 38%

    25 August, Saturday

    Time Temperature Precipitation Wind Pressure Humidity
    00:00 +19°C° 0 mm 2 mps 746 mmHg 38%
    01:00 +19°C° 0 mm 2 mps 746 mmHg 38%
    02:00 +18°C° 0 mm 2 mps 745 mmHg 38%
    03:00 +18°C° 0 mm 2 mps 745 mmHg 39%
    04:00 +18°C° 0 mm 1 mps 745 mmHg 39%
    05:00 +18°C° 0 mm 1 mps 745 mmHg 40%
    06:00 +19°C° 0 mm 2 mps 745 mmHg 38%
    07:00 +21°C° 0 mm 2 mps 745 mmHg 37%
    08:00 +24°C° 0 mm 2 mps 745 mmHg 35%
    09:00 +26°C° 0 mm 3 mps 745 mmHg 33%
    10:00 +28°C° 0 mm 3 mps 745 mmHg 31%
    11:00 +30°C° 0 mm 4 mps 745 mmHg 28%
    12:00 +32°C° 0 mm 4 mps 745 mmHg 28%
    13:00 +33°C° 0 mm 4 mps 744 mmHg 28%
    14:00 +33°C° 0 mm 5 mps 744 mmHg 28%
    15:00 +33°C° 0 mm 4 mps 744 mmHg 30%
    16:00 +33°C° 0 mm 4 mps 743 mmHg 33%
    17:00 +32°C° 0 mm 4 mps 743 mmHg 35%
    18:00 +30°C° 0 mm 3 mps 743 mmHg 39%
    19:00 +28°C° 0 mm 3 mps 743 mmHg 43%
    20:00 +26°C° 0 mm 3 mps 743 mmHg 46%
    21:00 +25°C° 0 mm 2 mps 743 mmHg 49%
    22:00 +24°C° 0 mm 2 mps 743 mmHg 52%
    23:00 +23°C° 0 mm 2 mps 743 mmHg 55%

    26 August, Sunday

    Time Temperature Precipitation Wind Pressure Humidity
    00:00 +23°C° 0 mm 2 mps 743 mmHg 59%
    01:00 +21°C° 0 mm 2 mps 743 mmHg 63%
    02:00 +20°C° 0 mm 2 mps 743 mmHg 67%
    03:00 +20°C° 0 mm 2 mps 743 mmHg 71%
    04:00 +19°C° 0 mm 2 mps 743 mmHg 74%
    05:00 +19°C° 0 mm 2 mps 743 mmHg 78%
    06:00 +21°C° 0 mm 3 mps 743 mmHg 70%
    07:00 +22°C° 0 mm 3 mps 743 mmHg 63%
    08:00 +25°C° 0 mm 4 mps 743 mmHg 56%
    09:00 +27°C° 0 mm 4 mps 743 mmHg 49%
    10:00 +29°C° 0 mm 4 mps 743 mmHg 42%
    11:00 +32°C° 0 mm 4 mps 743 mmHg 35%
    12:00 +31°C° 0 mm 3 mps 743 mmHg 33%
    13:00 +33°C° 0 mm 3 mps 742 mmHg 31%
    14:00 +33°C° 0 mm 3 mps 742 mmHg 29%
    15:00 +33°C° 0 mm 3 mps 742 mmHg 29%
    16:00 +32°C° 0 mm 2 mps 742 mmHg 29%
    17:00 +32°C° 0 mm 2 mps 742 mmHg 30%
    18:00 +30°C° 0 mm 2 mps 742 mmHg 34%
    19:00 +28°C° 0 mm 2 mps 742 mmHg 38%
    20:00 +26°C° 0 mm 2 mps 742 mmHg 43%
    21:00 +25°C° 0 mm 2 mps 742 mmHg 45%
    22:00 +24°C° 0 mm 2 mps 742 mmHg 47%
    23:00 +24°C° 0 mm 3 mps 742 mmHg 49%

    27 August, Monday

    Time Temperature Precipitation Wind Pressure Humidity
    00:00 +23°C° 0 mm 2 mps 742 mmHg 50%
    01:00 +23°C° 0 mm 2 mps 742 mmHg 52%
    02:00 +22°C° 0 mm 1 mps 742 mmHg 54%
    03:00 +22°C° 0 mm 1 mps 742 mmHg 56%
    04:00 +22°C° 0 mm 1 mps 742 mmHg 58%
    05:00 +21°C° 0 mm 1 mps 743 mmHg 60%
    06:00 +23°C° 0 mm 1 mps 743 mmHg 57%
    07:00 +24°C° 0 mm 2 mps 743 mmHg 54%
    08:00 +26°C° 0 mm 2 mps 744 mmHg 51%
    09:00 +27°C° 0 mm 2 mps 744 mmHg 47%
    10:00 +29°C° 0 mm 2 mps 744 mmHg 44%
    11:00 +30°C° 0 mm 2 mps 744 mmHg 40%
    12:00 +31°C° 0 mm 2 mps 744 mmHg 39%
    13:00 +31°C° 0 mm 2 mps 744 mmHg 39%
    14:00 +32°C° 0 mm 2 mps 744 mmHg 38%
    15:00 +31°C° 0.1 mm 3 mps 744 mmHg 41%
    16:00 +30°C° 0.1 mm 3 mps 744 mmHg 45%
    17:00 +29°C° 0.1 mm 4 mps 744 mmHg 49%
    18:00 +27°C° 0.4 mm 4 mps 744 mmHg 55%
    19:00 +25°C° 0.4 mm 5 mps 744 mmHg 62%
    20:00 +23°C° 0.4 mm 5 mps 745 mmHg 68%
    21:00 +22°C° 0.6 mm 5 mps 745 mmHg 73%
    22:00 +21°C° 0.6 mm 5 mps 745 mmHg 78%
    23:00 +20°C° 0.6 mm 5 mps 745 mmHg 83%
    Show more